EW4271 Weather Reports


time (UTC)temp
C
wind
direction
speed
KPH
gust
KPH
rain 1hr
cm
rain 24hr
cm
rain mn
cm
humidity
%
barometer
mb
20260906212532 28 76 1.6 6.4 0.00 0.00 0.00 25 1024.1
20260906212010 28 42 3.2 6.4 0.00 0.00 0.00 26 1024.1
20260906211523 28 136 0.0 6.4 0.00 0.00 0.00 25 1024.2
20260906211037 28 57 3.2 6.4 0.00 0.00 0.00 25 1024.2
20260906210510 28 57 4.8 8.0 0.00 0.00 0.00 25 1024.3
20260906210025 28 55 3.2 8.0 0.00 0.00 0.00 26 1024.4
20260906205520 28 34 1.6 6.4 0.00 0.00 0.00 26 1024.5
20260906205014 28 128 3.2 8.0 0.00 0.00 0.00 24 1024.6
20260906204527 28 261 3.2 8.0 0.00 0.00 0.00 24 1024.7
20260906204043 28 158 1.6 4.8 0.00 0.00 0.00 25 1024.7
20260906203520 28 63 1.6 4.8 0.00 0.00 0.00 27 1024.7
20260906203014 28 43 3.2 6.4 0.00 0.28 0.00 26 1024.8
20260906202509 28 244 3.2 12.9 0.00 0.28 0.00 25 1024.9
20260906202042 28 151 4.8 12.9 0.00 0.28 0.00 25 1025.0
20260906201516 28 218 4.8 8.0 0.00 0.28 0.00 24 1025.0
20260906201010 28 125 3.2 6.4 0.00 0.28 0.00 24 1025.0
20260906200523 29 47 1.6 6.4 0.00 0.28 0.00 25 1025.1
20260906200018 29 265 3.2 6.4 0.00 0.28 0.00 24 1025.3
20260906195515 29 207 4.8 6.4 0.00 0.28 0.00 24 1025.3
20260906195028 28 158 3.2 12.9 0.00 0.28 0.00 24 1025.3
20260906194523 28 280 3.2 12.9 0.00 0.28 0.00 26 1025.3
20260906194017 28 78 4.8 9.7 0.00 0.28 0.00 26 1025.4
20260906193512 28 144 4.8 8.0 0.00 0.28 0.00 26 1025.5
20260906193025 27 121 1.6 9.7 0.00 0.28 0.00 28 1025.5
20260906192519 27 146 3.2 8.0 0.00 0.28 0.00 26 1025.6
20260906192012 27 35 3.2 6.4 0.00 0.28 0.00 27 1025.7
20260906191510 27 95 1.6 12.9 0.00 0.28 0.00 27 1025.7
20260906191044 27 160 4.8 12.9 0.00 0.28 0.00 28 1025.8
20260906190517 27 9 4.8 8.0 0.00 0.28 0.00 28 1025.8
20260906190010 27 36 3.2 11.3 0.00 0.28 0.00 27 1025.9
20260906185524 26 132 4.8 9.7 0.00 0.28 0.00 29 1026.0
20260906185039 26 34 4.8 12.9 0.00 0.28 0.00 28 1026.0
20260906184513 26 16 4.8 12.9 0.00 0.28 0.00 26 1026.2
20260906184027 27 81 3.2 8.0 0.00 0.28 0.00 27 1026.2
20260906183520 26 71 3.2 6.4 0.00 0.28 0.00 28 1026.4
20260906183019 26 44 1.6 9.7 0.00 0.28 0.00 29 1026.5
20260906182534 26 58 6.4 9.7 0.00 0.28 0.00 29 1026.5
20260906182028 26 28 3.2 12.9 0.00 0.28 0.00 27 1026.6
20260906181521 27 98 4.8 12.9 0.00 0.28 0.00 31 1026.7
20260906181016 26 226 3.2 9.7 0.00 0.28 0.00 28 1026.8
20260906180509 26 144 1.6 9.7 0.00 0.28 0.00 30 1026.8
20260906180023 26 144 3.2 9.7 0.00 0.28 0.00 33 1026.9
20260906175517 26 24 3.2 8.0 0.00 0.28 0.00 31 1026.8
20260906175032 26 107 1.6 8.0 0.00 0.28 0.00 31 1026.9
20260906174529 26 146 4.8 9.7 0.00 0.28 0.00 32 1027.0
20260906174022 25 69 0.0 9.7 0.00 0.28 0.00 33 1027.0
20260906173516 25 11 3.2 11.3 0.00 0.28 0.00 32 1027.1
20260906173010 25 209 6.4 11.3 0.00 0.28 0.00 32 1027.1
20260906172524 25 186 3.2 6.4 0.00 0.28 0.00 33 1027.2
20260906172039 25 156 0.0 6.4 0.00 0.28 0.00 34 1027.2
20260906171511 25 140 1.6 4.8 0.00 0.28 0.00 34 1027.4
20260906171026 25 119 3.2 4.8 0.00 0.28 0.00 35 1027.4
20260906170524 25 180 3.2 8.0 0.00 0.28 0.00 34 1027.4
20260906170018 25 30 3.2 8.0 0.00 0.28 0.00 34 1027.4
20260906165533 25 144 3.2 8.0 0.00 0.28 0.00 36 1027.4
20260906165026 25 124 1.6 4.8 0.00 0.28 0.00 37 1027.4
20260906164539 24 124 1.6 4.8 0.00 0.28 0.00 35 1027.5
20260906164012 24 108 3.2 8.0 0.00 0.28 0.00 37 1027.5
20260906163527 24 168 3.2 8.0 0.00 0.28 0.00 38 1027.5
20260906163041 24 167 3.2 6.4 0.00 0.28 0.00 38 1027.5
20260906162513 23 138 3.2 6.4 0.00 0.28 0.00 41 1027.5
20260906162028 23 111 3.2 9.7 0.00 0.28 0.00 39 1027.5
20260906161525 23 161 4.8 9.7 0.00 0.28 0.00 40 1027.5
20260906161039 23 127 1.6 4.8 0.00 0.28 0.00 40 1027.5
20260906160512 23 152 1.6 8.0 0.00 0.28 0.00 42 1027.4
20260906160026 23 152 1.6 8.0 0.00 0.28 0.00 45 1027.4
20260906155520 22 151 0.0 6.4 0.00 0.28 0.00 45 1027.4
20260906155013 22 141 1.6 6.4 0.00 0.28 0.00 45 1027.4
20260906154528 22 141 3.2 8.0 0.00 0.28 0.00 43 1027.4
20260906154022 22 149 3.2 8.0 0.00 0.28 0.00 45 1027.4
20260906153520 22 178 3.2 4.8 0.00 0.28 0.00 45 1027.4
20260906153014 21 159 0.0 0.0 0.00 0.28 0.00 46 1027.4
20260906152509 21 159 0.0 3.2 0.00 0.28 0.00 47 1027.4
20260906152022 21 159 1.6 3.2 0.00 0.28 0.00 49 1027.4
20260906151517 20 159 1.6 8.0 0.00 0.28 0.00 50 1027.5
20260906151012 20 169 3.2 4.8 0.00 0.28 0.00 52 1027.4
20260906150526 19 169 0.0 0.0 0.00 0.28 0.00 56 1027.4
20260906150041 18 169 0.0 1.6 0.00 0.28 0.00 63 1027.5
20260906145518 17 169 0.0 1.6 0.00 0.28 0.00 65 1027.4
20260906145012 17 169 0.0 0.0 0.00 0.28 0.00 67 1027.4
20260906144547 16 169 0.0 0.0 0.00 0.28 0.00 74 1027.3
20260906144040 15 169 0.0 0.0 0.00 0.28 0.00 77 1027.3
20260906143513 15 169 0.0 0.0 0.00 0.28 0.00 80 1027.1
20260906143049 14 169 0.0 0.0 0.00 0.28 0.00 80 1027.1
20260906142522 13 169 0.0 0.0 0.00 0.28 0.00 82 1027.1
20260906142016 13 169 0.0 0.0 0.00 0.28 0.00 80 1027.0
20260906141531 12 169 0.0 0.0 0.00 0.28 0.00 81 1027.1
20260906141024 12 169 0.0 0.0 0.00 0.28 0.00 81 1027.1
20260906140522 12 169 0.0 0.0 0.00 0.28 0.00 81 1027.1
20260906140015 12 169 0.0 0.0 0.00 0.28 0.00 80 1027.1
20260906135530 12 169 0.0 0.0 0.00 0.28 0.00 80 1027.1
20260906135023 12 169 0.0 0.0 0.00 0.28 0.00 81 1027.0
20260906134517 11 169 0.0 0.0 0.00 0.28 0.00 80 1027.0
20260906134011 11 169 0.0 0.0 0.00 0.28 0.00 79 1026.9
20260906133524 11 169 0.0 0.0 0.00 0.28 0.00 80 1026.8
20260906133017 11 169 0.0 0.0 0.00 0.28 0.00 80 1026.9
20260906132511 11 169 0.0 0.0 0.00 0.28 0.00 79 1026.7
20260906132047 11 169 0.0 0.0 0.00 0.28 0.00 80 1026.7
20260906131521 11 169 0.0 0.0 0.00 0.28 0.00 78 1026.7
20260906131015 11 169 0.0 0.0 0.00 0.28 0.00 78 1026.7
20260906130509 11 169 0.0 0.0 0.00 0.28 0.00 78 1026.6
20260906130023 11 169 0.0 0.0 0.00 0.28 0.00 78 1026.5
20260906125538 11 169 0.0 0.0 0.00 0.28 0.00 79 1026.5
20260906125010 11 169 0.0 0.0 0.00 0.28 0.00 79 1026.4
20260906124524 11 169 0.0 0.0 0.00 0.28 0.00 78 1026.4
20260906124018 11 169 0.0 0.0 0.00 0.28 0.00 78 1026.4
20260906123512 11 169 0.0 0.0 0.00 0.28 0.00 79 1026.4
20260906123011 11 169 0.0 0.0 0.00 0.28 0.00 79 1026.4
20260906122524 11 169 0.0 0.0 0.00 0.28 0.00 79 1026.3
20260906122018 11 169 0.0 0.0 0.00 0.28 0.00 78 1026.4
20260906121513 11 169 0.0 0.0 0.00 0.28 0.00 78 1026.4
20260906121026 11 169 0.0 0.0 0.00 0.28 0.00 78 1026.4
20260906120542 12 169 0.0 0.0 0.00 0.28 0.00 79 1026.4
20260906120014 12 169 0.0 0.0 0.00 0.28 0.00 78 1026.4
20260906115528 12 169 0.0 0.0 0.00 0.28 0.00 78 1026.4
20260906115026 12 169 0.0 0.0 0.00 0.28 0.00 79 1026.5
20260906114520 12 169 0.0 0.0 0.00 0.28 0.00 77 1026.5
20260906114014 12 169 0.0 0.0 0.00 0.28 0.00 77 1026.5
20260906113528 12 169 0.0 0.0 0.00 0.28 0.00 78 1026.5
20260906113022 12 169 0.0 0.0 0.00 0.28 0.00 78 1026.5
20260906112516 12 169 0.0 0.0 0.00 0.28 0.00 78 1026.4
20260906112009 12 169 0.0 0.0 0.00 0.28 0.00 77 1026.4
20260906111521 12 169 0.0 0.0 0.00 0.28 0.00 77 1026.4
20260906111014 12 169 0.0 0.0 0.00 0.28 0.00 75 1026.4
20260906110526 12 169 0.0 0.0 0.00 0.28 0.00 77 1026.3
20260906110024 12 169 0.0 0.0 0.00 0.28 0.00 77 1026.4
20260906105518 12 169 0.0 0.0 0.00 0.28 0.00 75 1026.4
20260906105033 12 169 0.0 0.0 0.00 0.28 0.00 77 1026.4
20260906104547 12 169 0.0 0.0 0.00 0.28 0.00 77 1026.3
20260906104021 12 169 0.0 0.0 0.00 0.28 0.00 75 1026.4
20260906103514 12 169 0.0 0.0 0.00 0.28 0.00 75 1026.4
20260906102521 12 169 0.0 0.0 0.00 0.28 0.00 73 1026.3
20260906102015 12 169 0.0 0.0 0.00 0.28 0.00 74 1026.1
20260906101513 13 169 0.0 0.0 0.00 0.28 0.00 74 1026.0
20260906101028 13 169 0.0 0.0 0.00 0.28 0.00 75 1026.0
20260906100521 13 169 0.0 0.0 0.00 0.28 0.00 73 1026.0
20260906100014 13 169 0.0 0.0 0.00 0.28 0.00 74 1026.0
20260906095528 13 169 0.0 0.0 0.00 0.28 0.00 74 1026.0
20260906095022 13 169 0.0 0.0 0.00 0.28 0.00 72 1025.9
20260906094537 13 169 0.0 0.0 0.00 0.28 0.00 73 1026.0
20260906094010 13 169 0.0 0.0 0.00 0.28 0.00 74 1026.0
20260906093525 13 169 0.0 0.0 0.00 0.28 0.00 74 1026.0
20260906093039 13 169 0.0 0.0 0.00 0.28 0.00 75 1025.8
20260906092516 13 169 0.0 0.0 0.00 0.28 0.00 73 1025.7
20260906092009 13 169 0.0 0.0 0.00 0.28 0.00 73 1025.7
20260906091523 13 169 0.0 0.0 0.00 0.28 0.00 71 1025.7
20260906091016 13 169 0.0 0.0 0.00 0.28 0.00 73 1025.7
20260906090510 13 169 0.0 0.0 0.00 0.28 0.00 73 1025.7
20260906090024 13 169 0.0 0.0 0.00 0.28 0.00 74 1025.7
20260906085518 13 169 0.0 0.0 0.00 0.28 0.00 72 1025.7
20260906085011 13 169 0.0 0.0 0.00 0.28 0.00 73 1025.7
20260906084529 13 169 0.0 0.0 0.00 0.28 0.00 73 1025.7
20260906084023 13 169 0.0 0.0 0.00 0.28 0.00 73 1025.8
20260906083518 13 169 0.0 0.0 0.00 0.28 0.00 73 1025.9
20260906083012 13 169 0.0 0.0 0.00 0.28 0.00 73 1025.9
20260906082526 13 51 0.0 0.0 0.00 0.28 0.00 75 1025.9
20260906082019 13 51 0.0 0.0 0.00 0.28 0.00 74 1025.9
20260906081512 13 51 0.0 0.0 0.00 0.28 0.00 75 1025.9
20260906081026 13 51 0.0 0.0 0.00 0.28 0.00 74 1026.0
20260906080520 13 51 0.0 0.0 0.00 0.28 0.00 74 1026.0
20260906080019 13 51 0.0 0.0 0.00 0.28 0.00 74 1026.0
20260906075513 13 51 0.0 0.0 0.00 0.28 0.00 73 1026.1
20260906075028 13 51 0.0 0.0 0.00 0.28 0.00 74 1026.1
20260906074523 13 51 0.0 0.0 0.00 0.28 0.00 73 1026.2
20260906074016 13 51 0.0 0.0 0.00 0.28 0.00 73 1026.2
20260906073511 13 51 0.0 0.0 0.00 0.28 0.00 71 1026.2
20260906073025 14 51 0.0 0.0 0.00 0.28 0.00 72 1026.2
20260906072524 14 51 0.0 0.0 0.00 0.28 0.00 70 1026.2
20260906072018 14 51 0.0 0.0 0.00 0.28 0.00 72 1026.4
20260906071511 14 51 0.0 0.0 0.00 0.28 0.00 71 1026.4
20260906071025 14 51 0.0 0.0 0.00 0.28 0.00 71 1026.4
20260906070540 14 51 0.0 0.0 0.00 0.28 0.00 72 1026.5
20260906070013 15 51 0.0 0.0 0.00 0.28 0.00 69 1026.5
20260906065527 15 51 0.0 0.0 0.00 0.28 0.00 70 1026.6
20260906065021 15 51 0.0 0.0 0.00 0.28 0.00 70 1026.5
20260906064535 15 51 0.0 0.0 0.00 0.28 0.00 68 1026.5
20260906064030 15 51 0.0 0.0 0.00 0.28 0.00 70 1026.5
20260906063527 15 51 0.0 0.0 0.00 0.28 0.00 67 1026.5
20260906063021 15 51 0.0 0.0 0.00 0.28 0.28 68 1026.5
20260906062514 15 51 0.0 0.0 0.00 0.28 0.28 69 1026.5
20260906062049 15 51 0.0 0.0 0.00 0.28 0.28 68 1026.5
20260906061522 15 51 0.0 0.0 0.00 0.28 0.28 68 1026.4
20260906061016 16 51 0.0 0.0 0.00 0.28 0.28 65 1026.5
20260906060511 16 51 0.0 0.0 0.00 0.28 0.28 65 1026.4
20260906060045 16 51 0.0 0.0 0.00 0.28 0.28 68 1026.4
20260906055518 16 51 0.0 0.0 0.00 0.28 0.28 66 1026.4
20260906055033 16 51 0.0 0.0 0.00 0.28 0.28 63 1026.4
20260906054510 16 51 0.0 0.0 0.00 0.28 0.28 63 1026.4
20260906054023 16 51 0.0 0.0 0.00 0.28 0.28 64 1026.4
20260906053516 17 51 0.0 0.0 0.00 0.28 0.28 63 1026.3
20260906053010 17 51 0.0 0.0 0.00 0.28 0.28 63 1026.4
20260906052524 17 51 0.0 0.0 0.00 0.28 0.28 61 1026.4
20260906052019 18 51 0.0 0.0 0.00 0.28 0.28 62 1026.2
20260906051512 18 51 0.0 0.0 0.00 0.28 0.28 57 1026.2
20260906051026 18 51 0.0 0.0 0.00 0.28 0.28 58 1026.2
20260906050523 18 51 0.0 0.0 0.00 0.28 0.28 58 1026.1
20260906050017 19 51 0.0 0.0 0.00 0.28 0.28 53 1026.1
20260906045511 20 51 0.0 0.0 0.00 0.28 0.28 54 1026.0
20260906045024 20 51 0.0 0.0 0.00 0.28 0.28 51 1026.0
20260906044518 20 51 0.0 0.0 0.00 0.28 0.28 49 1025.9
20260906044032 21 51 0.0 0.0 0.00 0.28 0.28 48 1026.0
20260906043545 21 51 0.0 8.0 0.00 0.28 0.28 44 1026.0
20260906043018 21 51 0.0 8.0 0.00 0.28 0.28 43 1025.8
20260906042511 21 46 3.2 4.8 0.00 0.28 0.28 41 1025.7
20260906042009 22 215 1.6 3.2 0.00 0.28 0.28 41 1025.6
20260906041522 22 310 0.0 12.9 0.00 0.28 0.28 42 1025.5
20260906041016 22 5 3.2 12.9 0.00 0.28 0.28 39 1025.5
20260906040510 22 300 3.2 11.3 0.00 0.28 0.28 40 1025.5
20260906040022 22 43 3.2 16.1 0.00 0.28 0.28 40 1025.5
20260906035517 22 289 4.8 16.1 0.00 0.28 0.28 39 1025.5
20260906035011 22 81 1.6 6.4 0.00 0.28 0.28 40 1025.4
20260906034525 22 346 1.6 6.4 0.00 0.28 0.28 40 1025.4
20260906034022 22 299 1.6 4.8 0.00 0.28 0.28 40 1025.4
20260906033516 22 309 1.6 11.3 0.00 0.28 0.28 40 1025.4
20260906033009 22 259 3.2 12.9 0.00 0.28 0.28 40 1025.3
20260906032523 22 286 3.2 12.9 0.00 0.28 0.28 40 1025.3
20260906032018 22 286 3.2 6.4 0.00 0.28 0.28 42 1025.3
20260906031511 22 280 1.6 8.0 0.00 0.28 0.28 40 1025.2
20260906031025 22 244 1.6 8.0 0.00 0.28 0.28 40 1025.2
20260906030519 22 219 3.2 6.4 0.00 0.28 0.28 41 1025.1
20260906030016 22 286 1.6 4.8 0.00 0.28 0.28 42 1025.0
20260906025510 22 43 0.0 6.4 0.00 0.28 0.28 41 1025.0
20260906025023 22 43 1.6 6.4 0.00 0.28 0.28 41 1025.0
20260906024518 22 48 1.6 4.8 0.00 0.28 0.28 43 1024.9
20260906024012 22 314 1.6 6.4 0.00 0.28 0.28 42 1024.8
20260906023546 21 318 1.6 6.4 0.00 0.28 0.28 44 1024.7
20260906023018 21 350 0.0 4.8 0.00 0.28 0.28 44 1024.7
20260906022512 21 350 1.6 4.8 0.00 0.28 0.28 47 1024.6
20260906022009 20 350 1.6 4.8 0.00 0.28 0.28 47 1024.7
20260906021522 20 308 1.6 3.2 0.00 0.28 0.28 52 1024.7
20260906021016 20 308 1.6 3.2 0.00 0.28 0.28 53 1024.7
20260906020509 20 294 1.6 3.2 0.00 0.28 0.28 52 1024.7
20260906020022 20 294 0.0 3.2 0.00 0.28 0.28 57 1024.6
20260906015535 20 49 0.0 0.0 0.00 0.28 0.28 57 1024.6
20260906015009 20 49 0.0 0.0 0.00 0.28 0.28 58 1024.6
20260906014522 20 49 0.0 0.0 0.00 0.28 0.28 58 1024.6
20260906014016 20 49 0.0 3.2 0.00 0.28 0.28 60 1024.6
20260906013514 21 49 0.0 3.2 0.00 0.28 0.28 58 1024.5
20260906013048 21 49 0.0 0.0 0.00 0.28 0.28 57 1024.5
20260906012541 21 49 0.0 0.0 0.00 0.28 0.28 58 1024.5
20260906012034 21 49 0.0 0.0 0.00 0.28 0.28 57 1024.5
20260906011527 22 49 0.0 0.0 0.00 0.28 0.28 57 1024.5
20260906011020 22 49 0.0 0.0 0.00 0.28 0.28 58 1024.6
20260906010514 22 49 0.0 0.0 0.00 0.28 0.28 61 1024.5
20260906010047 22 49 0.0 0.0 0.00 0.28 0.28 61 1024.4
20260906005517 22 49 0.0 0.0 0.00 0.28 0.28 59 1024.5
20260906005029 23 49 0.0 0.0 0.00 0.28 0.28 60 1024.5
20260906004526 23 49 0.0 0.0 0.00 0.28 0.28 58 1024.4
20260906004020 23 49 0.0 0.0 0.00 0.28 0.28 55 1024.4
20260906003514 23 49 0.0 0.0 0.00 0.28 0.28 52 1024.4
20260906003027 23 49 0.0 0.0 0.00 0.28 0.28 52 1024.4
20260906002521 23 49 0.0 0.0 0.00 0.28 0.28 50 1024.4
20260906002015 24 49 0.0 0.0 0.00 0.28 0.28 49 1024.4
20260906001549 24 49 0.0 0.0 0.00 0.28 0.28 48 1024.4
20260906001022 24 49 0.0 0.0 0.00 0.28 0.28 49 1024.3
20260906000520 24 49 0.0 0.0 0.00 0.28 0.28 47 1024.3
20260906000013 24 49 0.0 0.0 0.00 0.28 0.28 48 1024.3
20260905235527 25 49 0.0 0.0 0.00 0.28 0.28 48 1024.1
20260905235020 25 49 0.0 0.0 0.00 0.28 0.28 48 1024.3
20260905234515 25 49 0.0 0.0 0.00 0.28 0.28 47 1024.3
20260905234028 25 49 0.0 0.0 0.00 0.28 0.28 48 1024.3
20260905233522 25 49 0.0 0.0 0.00 0.28 0.28 49 1024.3
20260905233015 25 49 0.0 0.0 0.00 0.28 0.28 49 1024.3
20260905232513 25 49 0.0 0.0 0.00 0.28 0.28 49 1024.3
20260905232026 25 49 0.0 0.0 0.00 0.28 0.28 45 1024.3
20260905231541 25 49 0.0 3.2 0.00 0.28 0.28 44 1024.4
20260905231113 25 49 0.0 4.8 0.00 0.28 0.28 45 1024.3
20260905230607 25 49 1.6 6.4 0.00 0.28 0.28 42 1024.4
20260905230120 25 57 4.8 8.0 0.00 0.28 0.28 41 1024.5
20260905225615 25 46 3.2 4.8 0.00 0.28 0.28 45 1024.4
20260905225129 25 157 0.0 4.8 0.00 0.28 0.28 44 1024.5
20260905224621 25 160 0.0 6.4 0.00 0.28 0.28 48 1024.5
20260905224115 25 56 3.2 6.4 0.00 0.28 0.28 46 1024.6
20260905223614 25 15 1.6 12.9 0.00 0.28 0.28 47 1024.5
20260905223107 25 46 6.4 16.1 0.00 0.28 0.28 45 1024.6
20260905222621 25 54 8.0 16.1 0.00 0.28 0.28 46 1024.6
20260905222135 24 45 4.8 12.9 0.00 0.28 0.28 49 1024.6
20260905221607 23 50 3.2 8.0 0.00 0.28 0.28 52 1024.8
20260905221120 23 53 1.6 8.0 0.00 0.28 0.28 52 1024.8
20260905220634 23 49 1.6 8.0 0.00 0.28 0.28 53 1024.8
20260905220106 22 49 4.8 8.0 0.00 0.28 0.28 54 1024.8
20260905215620 22 75 1.6 4.8 0.00 0.28 0.28 56 1024.9
20260905215114 22 32 1.6 4.8 0.00 0.28 0.28 57 1024.9
20260905214632 22 109 0.0 8.0 0.00 0.28 0.28 58 1024.9
20260905214104 22 53 3.2 9.7 0.00 0.28 0.28 57 1025.0
20260905213618 22 40 6.4 11.3 0.00 0.28 0.28 59 1025.0
20260905213112 21 53 4.8 11.3 0.00 0.28 0.28 65 1025.0